This demonstration page uses our WeatherBlox Daily Observations layout. Learn more.

Left ArrowRight Arrow

Hourly Observations for May 29, 2015

Temp ( °F °C ) Dew Point ( °F °C ) Humidity (%) Winds ( mph kmh ) Pressure ( in mb ) Visibility ( mi km ) Precip ( " mm )
12:51 am 00:51 Clear 69 20.6 23 -5 17 17 NNW 5 7 29.80 1009 10 16 0.00 0.00
1:51 am 01:51 Clear 67 19.4 23 -5 19 19 ESE 3 6 29.80 1009 10 16 0.00 0.00
2:51 am 02:51 Clear 63 17.2 23 -5 22 22 SSE 7 11 29.81 1010 10 16 0.00 0.00
3:51 am 03:51 Clear 60 15.6 22 -5.6 23 23 ENE 3 6 29.83 1010 10 16 0.00 0.00
4:51 am 04:51 Clear 60 15.6 22 -5.6 23 23 E 5 7 29.83 1010 10 16 0.00 0.00
5:51 am 05:51 Sunny 60 15.6 23 -5 24 24 SSE 6 9 29.86 1011 10 16 0.00 0.00
6:51 am 06:51 Sunny 67 19.4 24 -4.4 20 20 SE 5 7 29.88 1012 10 16 0.00 0.00
7:51 am 07:51 Sunny 74 23.3 26 -3.3 17 17 ESE 3 6 29.89 1012 10 16 0.00 0.00
8:51 am 08:51 Sunny 79 26.1 26 -3.3 14 14 Calm 29.89 1012 10 16 0.00 0.00
9:51 am 09:51 Sunny 84 28.9 26 -3.3 12 12 VRB 5 7 29.87 1011 10 16 0.00 0.00
10:51 am 10:51 Sunny 88 31.1 26 -3.3 10 10 Calm 29.85 1011 10 16 0.00 0.00
11:51 am 11:51 Sunny 91 32.8 25 -3.9 9 9 Calm 29.83 1010 10 16 0.00 0.00
12:51 pm 12:51 Mostly Sunny 94 34.4 24 -4.4 8 8 VRB 3 6 29.80 1009 10 16 0.00 0.00
1:51 pm 13:51 Partly Cloudy 95 35 24 -4.4 8 8 WSW 9 15 29.78 1009 10 16 0.00 0.00
2:51 pm 14:51 Mostly Cloudy 97 36.1 24 -4.4 7 7 WNW 10 17 29.76 1008 10 16 0.00 0.00
3:51 pm 15:51 Mostly Cloudy 95 35 23 -5 7 7 SW 6 9 29.75 1007 10 16 0.00 0.00
4:51 pm 16:51 Mostly Cloudy 96 35.6 21 -6.1 6 6 NW 13 20 29.73 1007 10 16 0.00 0.00
5:51 pm 17:51 Mostly Cloudy 95 35 20 -6.7 6 6 NNW 12 19 29.73 1007 10 16 0.00 0.00
6:51 pm 18:51 Mostly Cloudy 92 33.3 20 -6.7 7 7 NW 9 15 29.73 1007 10 16 0.00 0.00
7:51 pm 19:51 Partly Cloudy 86 30 19 -7.2 8 8 WNW 8 13 29.74 1007 10 16 0.00 0.00
8:51 pm 20:51 Mostly Clear 80 26.7 20 -6.7 10 10 WNW 10 17 29.77 1008 10 16 0.00 0.00
9:51 pm 21:51 Clear 78 25.6 22 -5.6 12 12 WNW 9 15 29.79 1009 10 16 0.00 0.00
10:51 pm 22:51 Clear 75 23.9 20 -6.7 12 12 WNW 12 19 29.79 1009 10 16 0.00 0.00
11:51 pm 23:51 Clear 73 22.8 19 -7.2 13 13 WNW 8 13 29.80 1009 10 16 0.00 0.00

Powered by AerisWeather